Location: Zagreb
(45.8000°N, 16.0000°E)
Time: 00:42:25
(UTC+01:00)

Transit 2A Rocket - Pass Details

Date: 05 October 2020
Orbit: 586 x 916 km, 66.7° (Epoch: 28 October)

Event Time Altitude Azimuth Distance (km) Brightness Sun altitude
Rises 02:34:04 0° 312° (NW) 3,340 - -42.6°
Reaches altitude 10° 02:37:37 10° 290° (WNW) 2,330 - -42.2°
Maximum altitude 02:40:28 15° 258° (WSW) 1,954 - -41.9°
Drops below altitude 10° 02:43:11 10° 224° (SW) 2,199 - -41.6°
Sets 02:46:24 0° 201° (SSW) 3,039 - -41.2°
